Time,TemperatureF,DewpointF,PressureIn,WindDirection,WindDirectionDegrees,WindSpeedMPH,WindSpeedGustMPH,Humidity,HourlyPrecipIn,Conditions,Clouds,dailyrainin,SoftwareType,DateUTC
2013-02-27 00:00:00,26.5,21.2,30.11,NNW,327,9.0,9.0,80,0.00,,,0.00,Wunderground v.1.15,2013-02-27 05:00:00,
2013-02-27 00:10:00,26.3,21.3,30.12,NNW,337,8.0,8.0,81,0.00,,,0.00,Wunderground v.1.15,2013-02-27 05:10:00,
2013-02-27 00:20:00,26.3,21.3,30.12,NW,326,8.0,8.0,81,0.00,,,0.00,Wunderground v.1.15,2013-02-27 05:20:00,
2013-02-27 00:30:00,26.3,21.3,30.12,NNW,333,7.0,7.0,81,0.00,,,0.00,Wunderground v.1.15,2013-02-27 05:30:00,
2013-02-27 00:40:00,26.5,20.9,30.12,North,350,7.0,7.0,79,0.00,,,0.00,Wunderground v.1.15,2013-02-27 05:40:00,
2013-02-27 00:50:00,26.6,21.0,30.12,NW,325,7.0,7.0,79,0.00,,,0.00,Wunderground v.1.15,2013-02-27 05:50:00,
2013-02-27 01:00:00,26.5,20.6,30.12,NW,320,7.0,7.0,78,0.00,,,0.00,Wunderground v.1.15,2013-02-27 06:00:00,
2013-02-27 01:10:00,26.4,20.8,30.12,NW,314,7.0,7.0,79,0.00,,,0.00,Wunderground v.1.15,2013-02-27 06:10:00,
2013-02-27 01:20:00,26.3,20.4,30.11,NNW,327,7.0,7.0,78,0.00,,,0.00,Wunderground v.1.15,2013-02-27 06:20:00,
2013-02-27 01:30:00,26.3,20.1,30.11,NNW,329,9.0,11.0,77,0.00,,,0.00,Wunderground v.1.15,2013-02-27 06:30:00,
2013-02-27 01:40:00,26.3,19.8,30.12,NNW,328,10.0,10.0,76,0.00,,,0.00,Wunderground v.1.15,2013-02-27 06:40:00,
2013-02-27 01:50:00,26.1,19.6,30.12,NW,318,9.0,9.0,76,0.00,,,0.00,Wunderground v.1.15,2013-02-27 06:50:00,
2013-02-27 02:00:00,26.0,20.1,30.12,NW,313,8.0,8.0,78,0.00,,,0.00,Wunderground v.1.15,2013-02-27 07:00:00,
2013-02-27 02:10:00,26.0,20.4,30.13,NW,326,7.0,7.0,79,0.00,,,0.00,Wunderground v.1.15,2013-02-27 07:10:00,
2013-02-27 02:20:00,26.0,20.7,30.13,NW,325,8.0,8.0,80,0.00,,,0.00,Wunderground v.1.15,2013-02-27 07:20:00,
2013-02-27 02:30:00,25.5,20.5,30.13,NW,325,9.0,9.0,81,0.00,,,0.00,Wunderground v.1.15,2013-02-27 07:30:00,
2013-02-27 02:40:00,25.0,20.3,30.12,NNW,330,9.0,9.0,82,0.00,,,0.00,Wunderground v.1.15,2013-02-27 07:40:00,
2013-02-27 02:50:00,24.8,19.8,30.12,NNW,329,9.0,10.0,81,0.00,,,0.00,Wunderground v.1.15,2013-02-27 07:50:00,
2013-02-27 03:00:00,24.8,19.2,30.13,NNW,329,9.0,9.0,79,0.00,,,0.00,Wunderground v.1.15,2013-02-27 08:00:00,
2013-02-27 03:10:00,25.3,18.8,30.13,NW,322,11.0,11.0,76,0.00,,,0.00,Wunderground v.1.15,2013-02-27 08:10:00,
2013-02-27 03:20:00,25.7,18.6,30.13,NNW,333,13.0,13.0,74,0.00,,,0.00,Wunderground v.1.15,2013-02-27 08:20:00,
2013-02-27 03:30:00,25.6,18.5,30.13,NW,321,13.0,13.0,74,0.00,,,0.00,Wunderground v.1.15,2013-02-27 08:30:00,
2013-02-27 03:40:00,25.9,18.4,30.14,NNW,332,11.0,11.0,73,0.00,,,0.00,Wunderground v.1.15,2013-02-27 08:40:00,
2013-02-27 03:50:00,27.1,18.6,30.14,NNE,13,9.0,11.0,70,0.00,,,0.00,Wunderground v.1.15,2013-02-27 08:50:00,
2013-02-27 04:00:00,27.4,18.9,30.14,NNW,341,10.0,10.0,70,0.00,,,0.00,Wunderground v.1.15,2013-02-27 09:00:00,
2013-02-27 04:10:00,27.5,19.0,30.14,North,359,10.0,16.0,70,0.00,,,0.00,Wunderground v.1.15,2013-02-27 09:10:00,
2013-02-27 04:21:00,27.5,19.0,30.14,North,349,11.0,11.0,70,0.00,,,0.00,Wunderground v.1.15,2013-02-27 09:21:00,
2013-02-27 04:30:00,27.5,19.0,30.14,NNE,13,10.0,13.0,70,0.00,,,0.00,Wunderground v.1.15,2013-02-27 09:30:00,
2013-02-27 04:40:00,27.5,19.0,30.14,NNE,17,11.0,11.0,70,0.00,,,0.00,Wunderground v.1.15,2013-02-27 09:40:00,
2013-02-27 04:50:00,27.4,18.9,30.14,NNE,32,10.0,17.0,70,0.00,,,0.00,Wunderground v.1.15,2013-02-27 09:50:00,
2013-02-27 05:00:00,27.6,19.1,30.14,NNW,335,12.0,17.0,70,0.00,,,0.00,Wunderground v.1.15,2013-02-27 10:00:00,
2013-02-27 05:10:00,27.5,19.3,30.14,NNW,328,11.0,17.0,71,0.00,,,0.00,Wunderground v.1.15,2013-02-27 10:10:00,
2013-02-27 05:20:00,27.0,19.5,30.14,NNW,334,10.0,17.0,73,0.00,,,0.00,Wunderground v.1.15,2013-02-27 10:20:00,
2013-02-27 05:30:00,27.7,20.5,30.14,NNW,331,13.0,17.0,74,0.00,,,0.00,Wunderground v.1.15,2013-02-27 10:30:00,
2013-02-27 05:40:00,28.1,21.8,30.14,NNW,333,15.0,17.0,77,0.00,,,0.00,Wunderground v.1.15,2013-02-27 10:40:00,
2013-02-27 05:50:00,28.2,22.8,30.15,NNW,332,17.0,17.0,80,0.00,,,0.00,Wunderground v.1.15,2013-02-27 10:50:00,
2013-02-27 06:00:00,28.3,23.8,30.15,NNW,346,15.0,15.0,83,0.00,,,0.00,Wunderground v.1.15,2013-02-27 11:00:00,
2013-02-27 06:10:00,28.8,24.9,30.15,NNW,342,15.0,15.0,85,0.00,,,0.00,Wunderground v.1.15,2013-02-27 11:10:00,
2013-02-27 06:20:00,29.2,25.3,30.15,NNW,330,15.0,15.0,85,0.00,,,0.00,Wunderground v.1.15,2013-02-27 11:20:00,
2013-02-27 06:30:00,29.6,25.6,30.15,NW,314,16.0,16.0,85,0.00,,,0.00,Wunderground v.1.15,2013-02-27 11:30:00,
2013-02-27 06:40:00,29.8,25.8,30.16,NNW,335,17.0,17.0,85,0.00,,,0.00,Wunderground v.1.15,2013-02-27 11:40:00,
2013-02-27 06:50:00,29.9,25.9,30.16,North,349,16.0,17.0,85,0.00,,,0.00,Wunderground v.1.15,2013-02-27 11:50:00,
2013-02-27 07:00:00,30.2,25.9,30.16,NNW,334,18.0,26.0,84,0.00,,,0.00,Wunderground v.1.15,2013-02-27 12:00:00,
2013-02-27 07:10:00,30.1,25.3,30.16,NNW,347,20.0,25.0,82,0.00,,,0.00,Wunderground v.1.15,2013-02-27 12:10:00,
2013-02-27 07:20:00,29.7,25.5,30.16,NW,324,18.0,23.0,84,0.00,,,0.00,Wunderground v.1.15,2013-02-27 12:20:00,
2013-02-27 07:30:00,29.7,25.7,30.17,NNW,328,17.0,17.0,85,0.00,,,0.00,Wunderground v.1.15,2013-02-27 12:30:00,
2013-02-27 07:40:00,30.0,26.0,30.17,North,1,15.0,20.0,85,0.00,,,0.00,Wunderground v.1.15,2013-02-27 12:40:00,
2013-02-27 07:50:00,30.1,25.8,30.17,NNW,333,16.0,17.0,84,0.00,,,0.00,Wunderground v.1.15,2013-02-27 12:50:00,
2013-02-27 08:00:00,30.2,25.9,30.18,NW,325,19.0,20.0,84,0.00,,,0.00,Wunderground v.1.15,2013-02-27 13:00:00,
2013-02-27 08:10:00,30.3,26.0,30.18,NNW,339,19.0,22.0,84,0.00,,,0.00,Wunderground v.1.15,2013-02-27 13:10:00,
2013-02-27 08:20:00,30.1,26.4,30.18,NNW,335,21.0,21.0,86,0.00,,,0.00,Wunderground v.1.15,2013-02-27 13:20:00,
2013-02-27 08:30:00,30.0,26.6,30.18,NW,316,21.0,21.0,87,0.00,,,0.00,Wunderground v.1.15,2013-02-27 13:30:00,
2013-02-27 08:40:00,29.9,26.5,30.19,NNW,328,21.0,21.0,87,0.00,,,0.00,Wunderground v.1.15,2013-02-27 13:40:00,
2013-02-27 08:50:00,30.0,26.3,30.20,NNW,340,22.0,25.0,86,0.00,,,0.00,Wunderground v.1.15,2013-02-27 13:50:00,
2013-02-27 09:00:00,30.1,26.1,30.20,NNW,338,23.0,24.0,85,0.00,,,0.00,Wunderground v.1.15,2013-02-27 14:00:00,
2013-02-27 09:10:00,30.0,26.3,30.20,NNW,333,19.0,21.0,86,0.00,,,0.00,Wunderground v.1.15,2013-02-27 14:10:00,
2013-02-27 09:20:00,30.0,26.3,30.20,NNW,330,20.0,25.0,86,0.00,,,0.00,Wunderground v.1.15,2013-02-27 14:20:00,
2013-02-27 09:30:00,30.0,26.3,30.21,NNW,340,20.0,20.0,86,0.00,,,0.00,Wunderground v.1.15,2013-02-27 14:30:00,
2013-02-27 09:40:00,29.9,26.5,30.22,North,352,22.0,30.0,87,0.00,,,0.00,Wunderground v.1.15,2013-02-27 14:40:00,
2013-02-27 09:49:00,29.8,26.7,30.22,NNW,333,21.0,29.0,88,0.00,,,0.00,Wunderground v.1.15,2013-02-27 14:49:00,
2013-02-27 10:00:00,29.6,26.5,30.22,NNW,333,22.0,29.0,88,0.00,,,0.00,Wunderground v.1.15,2013-02-27 15:00:00,
2013-02-27 10:10:00,29.5,26.7,30.23,NNW,342,22.0,22.0,89,0.00,,,0.00,Wunderground v.1.15,2013-02-27 15:10:00,
2013-02-27 10:20:00,29.4,26.6,30.23,NNW,341,18.0,29.0,89,0.00,,,0.00,Wunderground v.1.15,2013-02-27 15:20:00,
2013-02-27 10:30:00,29.5,26.1,30.24,NNW,333,19.0,19.0,87,0.00,,,0.00,Wunderground v.1.15,2013-02-27 15:30:00,
2013-02-27 10:40:00,29.7,26.0,30.24,NNW,328,19.0,19.0,86,0.00,,,0.00,Wunderground v.1.15,2013-02-27 15:40:00,
2013-02-27 10:50:00,29.6,25.1,30.24,NW,325,20.0,20.0,83,0.00,,,0.00,Wunderground v.1.15,2013-02-27 15:50:00,
2013-02-27 11:00:00,29.7,25.2,30.24,NNW,327,21.0,21.0,83,0.00,,,0.00,Wunderground v.1.15,2013-02-27 16:00:00,
2013-02-27 11:10:00,29.7,24.6,30.24,NNW,328,23.0,29.0,81,0.00,,,0.00,Wunderground v.1.15,2013-02-27 16:10:00,
2013-02-27 11:20:00,29.7,24.0,30.24,NNW,327,23.0,29.0,79,0.00,,,0.00,Wunderground v.1.15,2013-02-27 16:20:00,
2013-02-27 11:30:00,29.9,23.9,30.25,NNW,339,24.0,29.0,78,0.00,,,0.00,Wunderground v.1.15,2013-02-27 16:30:00,
2013-02-27 11:40:00,29.8,23.8,30.26,NNW,334,23.0,23.0,78,0.00,,,0.00,Wunderground v.1.15,2013-02-27 16:40:00,
2013-02-27 11:50:00,30.0,23.7,30.26,NNW,341,20.0,29.0,77,0.00,,,0.00,Wunderground v.1.15,2013-02-27 16:50:00,
2013-02-27 12:00:00,30.0,23.7,30.26,NW,314,20.0,20.0,77,0.00,,,0.00,Wunderground v.1.15,2013-02-27 17:00:00,
2013-02-27 12:10:00,30.2,24.2,30.26,NNW,337,19.0,29.0,78,0.00,,,0.00,Wunderground v.1.15,2013-02-27 17:10:00,
2013-02-27 12:30:00,30.4,24.4,30.26,North,10,18.0,18.0,78,0.00,,,0.00,Wunderground v.1.15,2013-02-27 17:30:00,
2013-02-27 12:50:00,30.8,24.4,30.26,NW,324,19.0,19.0,77,0.00,,,0.00,Wunderground v.1.15,2013-02-27 17:50:00,
2013-02-27 13:10:00,30.8,24.7,30.27,NNW,330,17.0,29.0,78,0.00,,,0.00,Wunderground v.1.15,2013-02-27 18:10:00,
2013-02-27 13:20:00,30.5,25.1,30.26,NW,317,20.0,29.0,80,0.00,,,0.00,Wunderground v.1.15,2013-02-27 18:20:00,
2013-02-27 13:30:00,30.5,24.8,30.27,NNW,327,19.0,29.0,79,0.00,,,0.00,Wunderground v.1.15,2013-02-27 18:30:00,
2013-02-27 13:40:00,30.5,25.1,30.27,NNW,328,19.0,29.0,80,0.00,,,0.00,Wunderground v.1.15,2013-02-27 18:40:00,
2013-02-27 13:50:00,30.5,24.8,30.27,NNW,335,19.0,19.0,79,0.00,,,0.00,Wunderground v.1.15,2013-02-27 18:50:00,
2013-02-27 14:00:00,30.7,25.0,30.27,NW,306,17.0,17.0,79,0.00,,,0.00,Wunderground v.1.15,2013-02-27 19:00:00,
2013-02-27 14:10:00,30.6,24.6,30.27,NNW,327,19.0,19.0,78,0.00,,,0.00,Wunderground v.1.15,2013-02-27 19:10:00,
2013-02-27 14:20:00,30.6,24.9,30.27,NNW,329,18.0,18.0,79,0.00,,,0.00,Wunderground v.1.15,2013-02-27 19:20:00,
2013-02-27 14:30:00,30.6,24.9,30.27,NNW,338,19.0,19.0,79,0.00,,,0.00,Wunderground v.1.15,2013-02-27 19:30:00,
2013-02-27 14:40:00,30.6,24.6,30.27,NW,316,19.0,19.0,78,0.00,,,0.00,Wunderground v.1.15,2013-02-27 19:40:00,
2013-02-27 14:50:00,30.8,25.1,30.27,NNW,335,19.0,19.0,79,0.00,,,0.00,Wunderground v.1.15,2013-02-27 19:50:00,
2013-02-27 15:00:00,30.7,25.0,30.26,NNW,328,20.0,20.0,79,0.00,,,0.00,Wunderground v.1.15,2013-02-27 20:00:00,
2013-02-27 15:10:00,31.0,24.6,30.26,NW,321,20.0,20.0,77,0.00,,,0.00,Wunderground v.1.15,2013-02-27 20:10:00,
2013-02-27 15:30:00,30.9,25.2,30.27,NNW,331,17.0,29.0,79,0.00,,,0.00,Wunderground v.1.15,2013-02-27 20:30:00,
2013-02-27 15:40:00,30.6,24.9,30.27,NW,316,17.0,29.0,79,0.00,,,0.00,Wunderground v.1.15,2013-02-27 20:40:00,
2013-02-27 15:50:00,30.5,24.8,30.27,NNW,328,17.0,29.0,79,0.00,,,0.00,Wunderground v.1.15,2013-02-27 20:50:00,
2013-02-27 16:00:00,30.5,24.5,30.27,NNW,340,18.0,18.0,78,0.00,,,0.00,Wunderground v.1.15,2013-02-27 21:00:00,
2013-02-27 16:10:00,30.6,24.6,30.27,NNW,330,16.0,29.0,78,0.00,,,0.00,Wunderground v.1.15,2013-02-27 21:10:00,
2013-02-27 16:40:00,30.5,24.1,30.28,NW,323,16.0,29.0,77,0.00,,,0.00,Wunderground v.1.15,2013-02-27 21:40:00,
2013-02-27 16:50:00,30.4,24.1,30.28,NW,319,16.0,16.0,77,0.00,,,0.00,Wunderground v.1.15,2013-02-27 21:50:00,
2013-02-27 16:59:00,30.5,24.1,30.28,North,349,14.0,29.0,77,0.00,,,0.00,Wunderground v.1.15,2013-02-27 21:59:00,
2013-02-27 17:10:00,30.5,24.1,30.28,NW,319,16.0,29.0,77,0.00,,,0.00,Wunderground v.1.15,2013-02-27 22:10:00,
2013-02-27 17:30:00,30.3,23.6,30.28,NW,324,14.0,29.0,76,0.00,,,0.00,Wunderground v.1.15,2013-02-27 22:30:00,
2013-02-27 17:40:00,30.2,23.9,30.29,NNW,333,18.0,18.0,77,0.00,,,0.00,Wunderground v.1.15,2013-02-27 22:40:00,
2013-02-27 17:50:00,30.2,23.5,30.29,North,351,15.0,29.0,76,0.00,,,0.00,Wunderground v.1.15,2013-02-27 22:50:00,
2013-02-27 18:00:00,30.2,23.5,30.29,NW,313,14.0,14.0,76,0.00,,,0.00,Wunderground v.1.15,2013-02-27 23:00:00,
2013-02-27 18:10:00,30.1,23.1,30.29,NW,323,14.0,29.0,75,0.00,,,0.00,Wunderground v.1.15,2013-02-27 23:10:00,
2013-02-27 18:20:00,30.0,23.0,30.29,NW,316,15.0,15.0,75,0.00,,,0.00,Wunderground v.1.15,2013-02-27 23:20:00,
2013-02-27 18:30:00,29.8,23.2,30.30,NW,316,14.0,29.0,76,0.00,,,0.00,Wunderground v.1.15,2013-02-27 23:30:00,
2013-02-27 18:40:00,29.8,23.5,30.30,NNW,333,14.0,29.0,77,0.00,,,0.00,Wunderground v.1.15,2013-02-27 23:40:00,
2013-02-27 18:50:00,29.7,23.4,30.30,NW,323,15.0,15.0,77,0.00,,,0.00,Wunderground v.1.15,2013-02-27 23:50:00,
2013-02-27 19:00:00,29.7,23.1,30.30,NNW,330,15.0,16.0,76,0.00,,,0.00,Wunderground v.1.15,2013-02-28 00:00:00,
2013-02-27 19:10:00,29.6,23.6,30.30,NNW,334,15.0,15.0,78,0.00,,,0.00,Wunderground v.1.15,2013-02-28 00:10:00,
2013-02-27 19:19:00,29.5,23.5,30.29,NNW,340,13.0,13.0,78,0.00,,,0.00,Wunderground v.1.15,2013-02-28 00:19:00,
2013-02-27 19:30:00,29.2,23.2,30.29,NNW,333,14.0,15.0,78,0.00,,,0.00,Wunderground v.1.15,2013-02-28 00:30:00,
2013-02-27 19:40:00,29.0,22.7,30.29,North,349,12.0,12.0,77,0.00,,,0.00,Wunderground v.1.15,2013-02-28 00:40:00,
2013-02-27 19:50:00,28.5,22.5,30.29,NNW,331,11.0,11.0,78,0.00,,,0.00,Wunderground v.1.15,2013-02-28 00:50:00,
2013-02-27 20:00:00,27.9,22.5,30.30,NNW,329,9.0,9.0,80,0.00,,,0.00,Wunderground v.1.15,2013-02-28 01:00:00,
2013-02-27 20:10:00,27.6,22.2,30.30,WNW,302,8.0,22.0,80,0.00,,,0.00,Wunderground v.1.15,2013-02-28 01:10:00,
2013-02-27 20:20:00,27.6,22.2,30.30,NW,321,8.0,8.0,80,0.00,,,0.00,Wunderground v.1.15,2013-02-28 01:20:00,
2013-02-27 20:30:00,27.5,22.1,30.30,NW,314,7.0,22.0,80,0.00,,,0.00,Wunderground v.1.15,2013-02-28 01:30:00,
2013-02-27 20:40:00,27.4,22.3,30.30,NNW,328,7.0,22.0,81,0.00,,,0.00,Wunderground v.1.15,2013-02-28 01:40:00,
2013-02-27 20:50:00,26.8,21.8,30.30,NW,316,7.0,7.0,81,0.00,,,0.00,Wunderground v.1.15,2013-02-28 01:50:00,
2013-02-27 21:00:00,26.5,21.7,30.30,NW,319,6.0,22.0,82,0.00,,,0.00,Wunderground v.1.15,2013-02-28 02:00:00,
2013-02-27 21:10:00,26.1,21.4,30.30,NNW,338,6.0,22.0,82,0.00,,,0.00,Wunderground v.1.15,2013-02-28 02:10:00,
2013-02-27 21:20:00,25.6,21.2,30.30,NNW,334,7.0,7.0,83,0.00,,,0.00,Wunderground v.1.15,2013-02-28 02:20:00,
2013-02-27 21:30:00,25.1,20.9,30.30,NNW,328,7.0,7.0,84,0.00,,,0.00,Wunderground v.1.15,2013-02-28 02:30:00,
2013-02-27 21:40:00,25.7,21.5,30.30,NNW,330,7.0,22.0,84,0.00,,,0.00,Wunderground v.1.15,2013-02-28 02:40:00,
2013-02-27 21:50:00,25.9,21.4,30.30,WNW,297,7.0,7.0,83,0.00,,,0.00,Wunderground v.1.15,2013-02-28 02:50:00,
2013-02-27 22:00:00,25.7,21.3,30.30,NNW,328,8.0,8.0,83,0.00,,,0.00,Wunderground v.1.15,2013-02-28 03:00:00,
2013-02-27 22:10:00,24.8,20.7,30.30,NNW,329,9.0,22.0,84,0.00,,,0.00,Wunderground v.1.15,2013-02-28 03:10:00,
2013-02-27 22:20:00,23.9,20.0,30.30,NW,320,10.0,22.0,85,0.00,,,0.00,Wunderground v.1.15,2013-02-28 03:20:00,
2013-02-27 22:29:00,23.4,19.8,30.30,NW,324,9.0,22.0,86,0.00,,,0.00,Wunderground v.1.15,2013-02-28 03:29:00,
2013-02-27 22:40:00,23.7,20.1,30.30,NW,326,9.0,22.0,86,0.00,,,0.00,Wunderground v.1.15,2013-02-28 03:40:00,
2013-02-27 22:50:00,24.0,20.4,30.30,NW,322,10.0,22.0,86,0.00,,,0.00,Wunderground v.1.15,2013-02-28 03:50:00,
2013-02-27 23:00:00,24.3,20.4,30.30,NNW,336,10.0,22.0,85,0.00,,,0.00,Wunderground v.1.15,2013-02-28 04:00:00,
2013-02-27 23:10:00,24.8,20.7,30.30,NNW,331,11.0,11.0,84,0.00,,,0.00,Wunderground v.1.15,2013-02-28 04:10:00,
2013-02-27 23:20:00,24.7,20.8,30.30,NW,316,10.0,22.0,85,0.00,,,0.00,Wunderground v.1.15,2013-02-28 04:20:00,
2013-02-27 23:30:00,24.9,21.0,30.30,NNW,331,8.0,8.0,85,0.00,,,0.00,Wunderground v.1.15,2013-02-28 04:30:00,
2013-02-27 23:40:00,24.7,20.6,30.30,NW,323,8.0,22.0,84,0.00,,,0.00,Wunderground v.1.15,2013-02-28 04:40:00,
2013-02-27 23:49:00,24.3,20.4,30.30,NNW,330,10.0,22.0,85,0.00,,,0.00,Wunderground v.1.15,2013-02-28 04:49:00,